Weather in Nikolayevka

Russia / Amur Oblast     50°03′44″N   127°39′58″E
temp.,
°C
wind,
m/s
gust,
m/s
humid.,
%
clouds,
%
prec.,
mm/h
press.,
hPa
HPBL,
m
19 may, wed
wed1900:00+10e228345 0.0 100311
03:00+9nne33865 0.0 100340
06:00+8n477482 0.0 1005227
09:00+12ne444599 0.0 1005559
12:00+16nne334270 0.0 10051066
15:00+18ese2234100 0.0 10041486
18:00+18se4638100 0.0 10021185
21:00+14ese61350100 0.0 1000318
20 may, thu
thu2000:00+13s51060100 0.6 999335
03:00+12s41091100 3.3 996339
06:00+13wnw41085100 0.0 999552
09:00+14nnw795813 0.0 10041104
12:00+18n453682 0.0 10051509
15:00+19nne3330100 0.0 10051609
18:00+18e333798 0.0 1006664
21:00+12e48510 0.0 1007129
21 may, fri
fri2100:00+10sse235660 0.0 100844
03:00+9se356198 0.0 100680
06:00+10se116199 0.0 100755
09:00+15ne45455 0.0 1008622
12:00+19ne54375 0.0 10071088
15:00+21ne44365 0.0 10051252
18:00+20nne67415 0.0 10051080
21:00+13nne612685 0.3 1007527
22 may, sat
sat2200:00+11nne487626 0.9 1006280
03:00+9n368325 1.3 1005165
06:00+9nne36815 0.0 1005190
09:00+16ese12607 0.0 1003493
12:00+22s454791 0.0 1000800
15:00+31s7122732 0.0 9963188
18:00+28s7143196 0.0 994549
21:00+23sse71738100 0.1 994385
23 may, sun
sun2300:00+17ene2376100 0.0 99667
03:00+19s41062100 0.3 995316
06:00+19s71462100 0.1 993383
09:00+24ssw7125629 0.1 9931540
12:00+26wsw711401 0.0 9922362
15:00+23w81039100 0.0 9931979
18:00+17wsw4105296 0.4 9961494
21:00+13s5106842 0.5 998308